Theta_e
358 359 357 355 354 353 352 350 349 349 351 349 348 350 349 354 357 355 353 353 354 358 360 364 367 364 357 360 363 363 359 359 361 357 360 359 356 353 351 355 359 357
359 359 359 356 355 355 355 353 352 351 351 353 351 350 353 355 355 356 352 351 355 356 359 358 362 363 360 356 360 360 359 361 360 355 355 358 357 353 352 353 354 361
358 358 357 356 352 353 353 354 355 353 350 351 352 353 352 355 355 355 354 353 354 352 354 357 360 361 358 359 361 360 357 361 360 357 357 357 357 357 357 353 355 359
359 359 356 355 354 353 352 353 354 354 352 350 350 349 351 350 351 351 354 357 355 355 354 355 357 355 357 357 361 358 359 360 360 362 359 358 359 359 359 361 358 358
357 357 356 356 355 356 355 352 351 351 351 350 350 352 352 354 353 350 353 354 357 353 355 355 356 356 357 358 360 359 357 356 359 363 360 359 364 363 361 361 362 359
358 359 358 354 355 356 353 351 350 350 350 348 350 351 351 352 353 352 351 352 352 350 348 350 351 351 353 356 359 359 356 354 357 362 361 363 362 361 363 364 362 359
356 357 355 354 352 353 354 353 352 351 348 348 350 351 352 351 350 351 352 352 351 352 349 351 353 352 351 355 358 358 359 360 360 361 363 363 363 362 364 362 363 361
355 356 357 355 352 352 352 352 353 352 351 350 348 351 352 351 352 351 352 352 352 351 351 349 352 356 353 353 354 357 358 356 356 359 363 364 362 364 366 365 362 365
354 354 354 354 352 351 350 350 351 352 353 350 349 349 352 352 350 350 352 353 352 351 352 351 353 352 354 354 354 354 357 358 359 359 361 361 359 361 364 368 364 364
354 353 352 352 351 351 350 350 350 350 352 351 349 349 348 351 351 351 352 354 352 353 352 353 352 352 352 354 353 353 357 360 361 360 361 361 360 360 361 364 366 365
354 353 351 351 351 350 350 350 350 350 352 351 350 349 349 350 352 353 352 353 350 351 352 353 352 352 353 352 353 355 357 358 360 361 362 362 360 361 362 364 365 364
354 354 352 351 351 350 350 351 351 350 351 351 351 350 351 349 350 351 351 351 352 353 352 352 353 353 353 354 353 353 355 360 360 361 362 363 362 360 361 363 363 363
354 355 354 353 353 352 350 351 351 351 350 350 351 351 350 349 349 351 352 351 352 352 352 353 354 354 356 357 356 356 355 356 360 361 361 362 360 359 358 362 364 365
355 356 357 357 357 357 354 351 351 351 351 352 352 352 351 349 348 348 349 351 351 351 353 356 355 355 357 358 357 357 356 354 360 362 359 361 360 360 359 363 366 366
357 358 360 360 360 359 358 356 354 354 355 356 355 354 352 351 350 348 348 348 350 351 353 356 355 354 355 356 356 356 357 353 358 360 361 360 361 359 365 366 367 366
358 359 360 361 360 361 360 360 358 357 356 356 357 357 357 356 354 351 348 347 348 350 353 355 355 356 358 356 358 357 356 354 357 359 361 364 365 367 366 367 366 364
359 358 359 359 360 361 361 362 360 359 357 357 357 357 358 359 355 354 352 348 348 349 352 353 353 356 355 344 344 351 357 356 358 359 365 364 368 367 364 363 363 363
357 358 358 358 358 358 359 362 364 363 360 358 357 355 357 357 357 356 355 353 354 351 350 351 353 351 341 340 342 342 352 354 353 356 360 366 365 362 359 357 358 359
357 356 357 357 357 357 357 360 362 363 363 361 359 358 357 356 358 357 356 354 352 351 349 351 353 347 336 337 338 338 340 353 351 353 364 353 353 358 359 359 359 358
358 358 357 358 358 357 357 358 358 357 358 361 361 361 359 357 356 357 357 358 356 354 354 351 350 350 335 333 334 334 336 345 356 352 355 350 356 359 359 359 359 359
355 356 355 356 356 356 357 357 357 356 356 357 357 357 356 356 357 357 357 358 358 356 354 351 349 340 333 330 330 330 333 344 356 357 351 351 354 358 359 360 360 359
355 354 354 354 354 355 355 356 357 359 356 358 358 357 358 358 358 358 358 357 358 357 355 354 352 336 332 328 327 327 332 352 357 361 355 355 356 358 359 359 360 358
353 353 352 352 352 352 352 353 354 356 358 360 358 359 360 359 358 358 359 357 358 358 357 357 357 345 329 324 324 325 335 355 358 358 357 356 357 358 359 359 358 357
353 352 350 350 352 351 350 352 353 355 355 357 356 356 357 359 358 358 358 359 358 357 357 357 358 353 328 321 321 322 341 356 358 355 354 354 354 355 355 355 355 352
352 352 351 351 351 351 351 350 351 352 354 356 356 356 355 357 357 356 357 357 357 358 355 356 357 354 326 320 318 319 339 358 357 354 351 351 351 353 353 355 356 353
351 350 350 350 350 350 351 350 350 350 351 353 355 354 353 353 355 355 355 358 357 359 359 358 357 359 352 319 316 316 325 354 357 354 350 350 349 349 350 352 353 351
Wind_Speed
9 9 9 10 10 9 9 10 10 10 9 9 9 9 9 9 9 8 8 7 7 8 8 7 6 6 7 7 6 6 6 6 6 5 5 5 5 5 5 4 4 5
10 10 9 9 9 8 8 9 10 9 10 9 8 7 8 8 8 9 8 8 8 8 7 7 7 7 8 7 7 7 5 6 7 6 6 6 6 6 6 6 5 5
10 11 11 11 10 12 12 10 9 10 9 10 10 8 7 8 9 8 8 9 8 8 8 8 8 7 8 8 7 6 6 6 7 7 6 5 5 5 5 7 6 6
11 11 11 12 11 12 12 11 11 10 10 10 10 10 9 7 9 9 9 8 8 7 7 8 8 8 9 8 7 6 6 6 6 6 6 5 5 6 5 5 5 6
12 12 11 11 11 11 11 12 13 12 12 10 10 10 9 8 8 10 9 8 8 8 8 8 8 8 8 7 7 7 7 7 7 6 6 6 5 5 5 5 5 6
11 11 11 11 10 11 11 12 12 12 12 12 11 10 10 9 10 10 9 9 9 10 9 9 9 9 9 8 8 7 7 7 7 7 6 6 6 6 5 5 6 7
11 12 12 12 12 12 12 11 11 12 12 11 10 11 10 10 11 11 10 8 9 8 10 8 7 8 8 8 8 8 7 7 7 5 6 6 6 7 6 6 6 6
11 11 11 11 13 13 13 12 12 11 11 11 12 11 11 10 11 11 10 10 10 10 9 9 8 8 9 9 9 8 9 8 8 9 8 7 7 7 7 6 6 6
11 11 11 12 13 13 13 13 12 12 11 12 12 11 11 11 11 11 10 10 10 10 10 10 10 10 9 10 9 9 9 9 8 8 9 9 9 9 8 6 7 7
11 11 12 12 13 12 14 14 13 12 12 12 12 12 12 12 12 12 12 10 10 10 11 10 11 10 11 10 11 10 10 10 10 10 9 9 9 9 8 8 7 7
11 11 12 12 12 12 14 14 14 12 11 13 12 13 13 12 12 12 12 11 11 12 12 11 12 11 11 11 10 10 10 11 10 10 10 10 10 9 9 8 8 8
11 11 11 12 12 12 12 13 13 13 12 12 13 13 13 13 13 12 12 13 13 12 13 12 12 12 11 11 12 11 11 10 11 10 10 9 10 10 10 10 9 9
10 10 10 10 10 11 10 11 12 12 13 13 12 12 13 13 14 13 12 13 13 13 13 13 12 12 11 11 11 11 11 11 10 10 10 10 10 11 11 10 9 8
9 10 10 9 8 9 10 10 11 11 11 12 11 12 13 14 14 14 14 13 13 13 13 12 12 11 11 11 11 11 11 12 11 10 11 9 10 9 11 7 7 7
8 8 7 8 9 8 9 10 10 9 9 10 10 11 11 12 14 14 14 15 14 14 13 12 12 12 11 11 12 12 12 12 12 11 10 10 7 11 6 6 6 6
8 7 7 8 8 9 9 9 10 10 9 9 10 10 10 10 11 13 14 15 14 14 13 12 11 10 11 13 12 10 11 11 11 11 10 8 8 6 6 6 6 6
8 8 8 9 9 9 9 9 10 10 10 10 11 11 10 10 11 12 12 13 14 14 14 12 12 10 12 11 12 11 11 11 10 9 8 8 8 7 6 5 5 6
10 10 10 10 10 10 9 8 8 9 10 11 11 12 11 10 11 12 12 12 11 13 14 12 12 12 12 14 13 13 12 12 11 10 8 7 5 7 8 7 7 7
10 10 10 10 10 10 9 8 9 8 9 10 12 12 11 11 11 12 12 13 13 13 14 13 13 12 12 15 16 15 15 12 11 11 2 6 6 8 8 8 9 8
8 9 9 9 9 10 9 9 9 11 11 10 9 10 11 12 13 13 13 12 12 12 12 13 14 14 11 14 15 15 14 13 10 10 10 10 11 10 10 10 10 9
8 8 8 9 9 9 9 10 11 11 12 10 10 11 11 12 12 12 12 12 13 13 13 13 13 14 12 14 15 16 15 12 10 5 9 9 11 10 11 11 11 10
5 6 7 8 8 8 9 9 9 9 11 10 10 10 10 10 11 11 12 12 12 13 13 13 12 12 13 14 15 15 13 8 9 8 9 11 12 11 10 10 10 10
5 5 6 7 8 9 9 10 10 10 10 8 9 9 9 9 10 11 11 11 12 12 13 13 13 12 11 12 14 13 10 8 9 9 9 11 12 12 10 8 9 10
5 6 6 7 7 8 8 9 9 9 8 7 9 9 9 9 9 10 11 10 11 12 12 13 13 11 13 13 13 15 13 9 9 10 10 10 11 11 10 10 11 13
4 4 5 5 6 5 5 6 7 8 7 6 8 8 9 9 10 10 10 10 12 11 11 13 13 10 12 13 14 15 13 9 9 8 9 10 9 9 11 10 9 9
2 3 4 4 4 5 4 5 5 5 7 7 6 7 8 8 8 9 10 9 10 11 11 12 12 10 8 14 14 15 16 10 9 10 12 12 10 9 10 9 8 8
Wind_Direction
208 208 206 206 207 208 204 206 211 208 216 218 210 208 215 213 214 227 224 219 208 215 210 215 224 229 238 232 230 236 254 260 262 257 241 258 265 260 268 257 258 268
206 210 211 207 204 205 211 211 210 217 205 221 229 208 206 209 207 215 221 219 210 216 221 217 219 224 232 238 221 228 239 242 240 247 248 239 250 265 264 264 264 269
206 206 209 212 204 202 208 207 216 214 213 208 215 223 210 206 215 210 218 218 224 228 213 220 227 224 225 225 232 237 234 235 251 255 257 258 269 272 273 268 254 243
206 210 210 211 214 208 208 209 209 215 217 209 212 210 217 220 210 208 209 215 229 229 233 220 223 224 218 222 224 235 239 245 250 255 255 250 251 261 262 267 267 258
204 205 212 213 216 218 213 211 211 207 213 215 212 212 209 220 221 212 207 207 214 222 216 225 223 227 225 226 227 233 240 241 231 232 241 246 244 241 255 263 264 260
207 207 206 212 213 216 216 212 211 211 209 212 213 214 211 207 218 222 218 213 207 214 224 220 217 220 221 221 223 235 241 241 235 220 228 236 246 249 246 246 254 257
207 203 207 206 210 211 219 217 213 216 214 213 209 215 214 211 214 219 225 227 233 227 224 224 225 226 223 223 222 225 232 245 257 244 228 232 234 245 245 248 249 257
213 204 205 209 210 209 212 216 216 215 218 215 216 211 215 219 217 216 216 224 229 228 234 233 223 224 231 226 226 224 231 231 227 229 234 236 243 239 232 240 250 242
215 210 205 209 212 213 212 215 214 216 214 218 219 216 210 219 218 220 223 222 226 232 228 230 228 225 227 233 233 230 231 238 241 232 223 229 230 232 236 231 235 235
216 219 213 209 212 214 216 216 217 214 213 218 220 220 217 211 219 223 221 221 229 229 230 231 231 228 229 229 231 237 235 230 236 237 233 230 235 235 231 231 231 231
229 220 220 216 217 216 215 215 216 218 213 216 219 221 223 221 211 219 225 221 222 227 229 228 230 229 229 236 237 233 233 237 233 231 231 234 238 236 229 229 228 230
239 235 229 223 221 223 220 217 216 217 218 215 218 221 223 226 226 217 219 223 226 227 231 229 227 228 228 231 236 239 236 232 236 232 231 233 234 233 227 225 228 225
224 235 238 235 228 233 228 222 222 219 219 221 216 221 223 225 225 226 224 225 224 227 232 233 231 229 229 228 233 241 245 240 232 232 232 236 236 233 230 221 220 217
223 219 224 233 239 237 244 239 229 227 225 224 225 221 225 227 228 226 224 228 229 227 227 231 233 233 230 231 232 235 239 239 234 232 237 230 241 247 241 220 200 209
227 230 227 228 228 231 234 243 246 242 237 235 228 232 230 230 231 233 233 231 230 231 230 226 228 230 231 227 229 231 235 236 232 230 233 241 216 232 159 177 173 196
219 223 226 224 226 228 232 233 237 239 240 238 240 236 239 240 239 237 237 237 234 231 231 232 229 229 226 221 227 234 232 233 232 231 228 222 221 180 183 172 180 192
218 224 228 228 224 226 228 232 234 233 232 234 237 238 239 240 243 243 241 243 242 238 233 231 232 228 215 206 205 221 239 240 236 233 220 212 196 201 179 163 168 206
223 220 221 223 226 227 228 230 229 228 233 234 233 232 230 234 238 240 244 244 243 245 245 239 235 229 200 189 195 202 215 238 246 245 227 199 182 191 166 182 197 203
225 226 228 229 228 232 234 227 227 227 224 226 231 234 233 232 232 235 236 237 240 241 245 245 248 238 197 191 193 198 205 221 245 248 178 99 180 166 180 190 201 208
226 224 227 227 228 231 227 227 226 228 230 230 229 226 229 232 234 232 233 236 237 237 238 240 241 242 202 189 193 197 200 208 234 242 125 177 192 188 195 197 201 207
238 236 236 234 235 236 234 232 236 238 234 231 231 231 229 229 230 232 232 232 232 233 235 235 237 230 210 191 194 197 199 200 231 196 152 182 199 205 209 208 205 208
244 249 247 247 242 243 241 238 236 237 239 234 233 237 238 239 237 236 234 231 230 233 236 236 239 225 207 197 195 200 188 198 216 169 171 184 202 208 206 209 211 210
242 247 247 246 247 246 247 246 243 243 243 239 238 235 235 233 239 239 238 237 234 233 235 240 240 227 199 194 198 186 170 204 200 188 175 191 209 214 211 212 217 221
239 237 237 240 242 241 247 253 252 249 250 248 248 244 235 229 227 237 240 245 246 240 238 240 241 229 193 192 185 171 184 196 191 197 193 202 216 215 208 200 210 213
246 244 246 249 255 256 257 262 266 267 271 268 258 251 247 245 241 239 237 236 240 242 248 248 245 237 188 186 177 176 186 195 186 186 186 198 202 195 211 213 206 182
306 295 291 293 289 279 275 271 284 284 277 271 263 259 263 260 255 245 245 249 246 240 237 238 241 246 196 179 174 181 188 199 199 194 198 193 195 196 206 211 192 181